User: anonymous   Login
Location: Champs
(48.8539°N, 2.6040°E)
Time: 17:52:01
(UTC+00:00)
Language:

FENGYUN 1C DEB - Orbit

View from above orbital plane
View from above orbital plane
View from above satellite
View from above satellite

Ground track
Ground track

The orbit data is extracted from the following two-line orbital elements,

1 38503U 99025ESN 22222.41742975  .00003837  00000-0  70041-3 0  9999
2 38503  99.4855 291.5482 0110111  53.5945 307.5347 14.62820714457390
Epoch (UTC): 10 August 2022 10:01:05
Eccentricity: 0.0110111
inclination: 99.4855°
perigee height: 606 km
apogee height: 762 km
right ascension of ascending node: 291.5482°
argument of perigee: 53.5945°
revolutions per day: 14.62820714
mean anomaly at epoch: 307.5347°
orbit number at epoch: 45739

The dashed part of the orbit path shows where the satellite is in the earth's shadow,  

DLR